Location: Newport
(44.6370°N, 124.0520°W)
Time: 23:34:06
(UTC-08:00)

STRAND 1 - Visible Passes

Search period start: 23 November 2017 00:00
Search period end: 03 December 2017 00:00
Orbit: 768 x 781 km, 98.5° (Epoch: 23 November)

Date Brightness Start Highest point End Pass type
(mag) Time Alt. Az. Time Alt. Az. Time Alt. Az.
23 Nov ? 05:34:16 10° ESE 05:37:54 20° ENE 05:41:34 10° NNE visible
24 Nov ? 05:03:33 10° ENE 05:04:30 10° NE 05:05:27 10° NE visible
24 Nov ? 06:37:37 10° SSE 06:42:44 68° ENE 06:47:51 10° N visible
25 Nov ? 06:04:22 10° SE 06:09:00 35° ENE 06:13:38 10° N visible
26 Nov ? 05:31:55 10° ESE 05:35:26 19° ENE 05:38:58 10° NNE visible
27 Nov ? 06:35:09 10° SSE 06:40:14 65° ENE 06:45:21 10° N visible
28 Nov ? 06:01:57 10° SE 06:06:31 33° ENE 06:11:05 10° N visible
29 Nov ? 05:29:34 10° ESE 05:32:58 18° ENE 05:36:22 10° NNE visible
30 Nov ? 06:32:41 10° SSE 06:37:44 62° ENE 06:42:49 10° N visible
01 Dec ? 05:59:32 10° SE 06:04:02 32° ENE 06:08:33 10° N visible
02 Dec ? 05:27:13 10° E 05:30:30 17° ENE 05:33:46 10° NNE visible
